Weather History for Bergerac, France

Change the Weather History Date:

Sunday, March 3, 2013

  Actual Average (LFBA) Record (LFBA)
Temperature  
Mean Temperature 42 °F -  
Max Temperature 60 °F 54 °F 68 °F (1997)
Min Temperature 23 °F 39 °F 26 °F (2004)
Degree Days  
Heating Degree Days 24    
Moisture  
Dew Point 30 °F    
Average Humidity 74    
Maximum Humidity 100    
Minimum Humidity 31    
Precipitation  
Precipitation 0.00 in - - ()
Sea Level Pressure  
Sea Level Pressure 30.00 in    
Wind  
Wind Speed 3 mph ()    
Max Wind Speed 6 mph    
Max Gust Speed -    
Visibility 3.8 miles    
Events      
Averages and records for this station are not official NWS values.
T = Trace of Precipitation, MM = Missing Value Source: Averaged Metar Reports

Daily Weather History Graph

Daily Weather History Graph

Search for Another Location

Airport:

Trip Planner

Search our weather history database for the weather conditions in past years. The results will help you decide how hot, cold, wet, or windy it might be!

Date:

Astronomy

Mar. 03, 2013 Rise Set
Actual Time 7:32 AM CET 6:48 PM CET
Civil Twilight 7:02 AM CET 7:17 PM CET
Nautical Twilight 6:28 AM CET 7:51 PM CET
Astronomical Twilight 5:55 AM CET 8:25 PM CET
Moon 12:25 AM CET (3/3) 10:18 AM CET (3/3)
Length of Visible Light 12h 14m
Length of Day
11h 16m
Waning Gibbous, 66% of the Moon is Illuminated
Mar 3
Waning Gibbous
Mar 4
Last Quarter
Mar 11
New
Mar 19
First Quarter
Mar 27
Full

Hourly Weather History & Observations

Time (CET) Temp. Windchill Dew Point Humidity Pressure Visibility Wind Dir Wind Speed Gust Speed Precip Events Conditions
12:00 AM 28.4 °F - 26.6 °F 93% 30.12 in 1.7 mi ENE 2.3 mph - N/A   Mist
12:30 AM 28.4 °F 24.6 °F 26.6 °F 93% 30.12 in 1.4 mi East 3.5 mph - N/A   Mist
1:00 AM 26.6 °F 22.6 °F 26.6 °F 100% 30.09 in 1.2 mi East 3.5 mph - N/A   Mist
1:30 AM 26.6 °F 21.2 °F 24.8 °F 93% 30.09 in 1.3 mi ENE 4.6 mph - N/A   Mist
2:00 AM 26.6 °F 22.6 °F 24.8 °F 93% 30.09 in 1.2 mi East 3.5 mph - N/A   Mist
2:30 AM 26.6 °F 22.6 °F 24.8 °F 93% 30.09 in 1.2 mi ENE 3.5 mph - N/A   Mist
3:00 AM 24.8 °F 19.1 °F 23.0 °F 93% 30.09 in 1.0 mi ENE 4.6 mph - N/A   Mist
3:30 AM 24.8 °F 19.1 °F 23.0 °F 93% 30.06 in 1.0 mi East 4.6 mph - N/A   Mist
4:00 AM 24.8 °F 20.5 °F 23.0 °F 93% 30.06 in 1.2 mi East 3.5 mph - N/A   Mist
4:30 AM 24.8 °F - 23.0 °F 93% 30.06 in 1.2 mi East 1.2 mph - N/A   Mist
5:00 AM 24.8 °F 20.5 °F 23.0 °F 93% 30.06 in 1.4 mi ENE 3.5 mph - N/A   Mist
5:30 AM 24.8 °F 20.5 °F 23.0 °F 93% 30.06 in 1.4 mi Variable 3.5 mph - N/A   Mist
6:00 AM 24.8 °F - 23.0 °F 93% 30.06 in 1.4 mi East 2.3 mph - N/A   Mist
6:30 AM 24.8 °F - 23.0 °F 93% 30.04 in 1.3 mi ENE 2.3 mph - N/A   Mist
7:00 AM 24.8 °F - 23.0 °F 93% 30.04 in 1.3 mi East 2.3 mph - N/A   Mist
7:30 AM 23.0 °F - 21.2 °F 93% 30.04 in 1.6 mi Calm Calm - N/A   Mist
8:00 AM 24.8 °F - 23.0 °F 93% 30.04 in 1.6 mi Calm Calm - N/A   Mist
8:30 AM 26.6 °F - 24.8 °F 93% 30.06 in 1.6 mi NE 2.3 mph - N/A   Mist
9:00 AM 30.2 °F 26.7 °F 28.4 °F 93% 30.06 in 1.4 mi ENE 3.5 mph - N/A   Mist
9:30 AM 32.0 °F - 30.2 °F 93% 30.06 in 1.8 mi East 2.3 mph - N/A   Mist
10:00 AM 35.6 °F 32.8 °F 33.8 °F 93% 30.04 in - ENE 3.5 mph - N/A   Mist
10:30 AM 39.2 °F - 33.8 °F 81% 30.04 in - Variable 2.3 mph - N/A   Mist
11:00 AM 42.8 °F 41.1 °F 35.6 °F 76% 30.04 in 3.1 mi Variable 3.5 mph - N/A   Mist
11:30 AM 46.4 °F 45.2 °F 35.6 °F 66% 30.04 in 3.7 mi Variable 3.5 mph - N/A   Unknown
12:00 PM 48.2 °F - 35.6 °F 62% 30.04 in 4.3 mi Variable 2.3 mph - N/A   Unknown
12:30 PM 50.0 °F - 37.4 °F 62% 30.01 in 4.3 mi ENE 4.6 mph - N/A   Unknown
1:00 PM 51.8 °F - 37.4 °F 58% 30.01 in 5.0 mi Variable 3.5 mph - N/A   Unknown
1:30 PM 53.6 °F - 37.4 °F 54% 29.98 in 5.0 mi Variable 2.3 mph - N/A   Unknown
2:00 PM 55.4 °F - 37.4 °F 51% 29.98 in 6.2 mi Variable 2.3 mph - N/A   Unknown
2:30 PM 57.2 °F - 37.4 °F 48% 29.98 in 6.2 mi NW 3.5 mph - N/A   Unknown
3:00 PM 59.0 °F - 33.8 °F 39% 29.95 in 6.2 mi Variable 1.2 mph - N/A   Unknown
3:30 PM 59.0 °F - 32.0 °F 36% 29.95 in 6.2 mi Variable 3.5 mph - N/A   Unknown
4:00 PM 60.8 °F - 33.8 °F 36% 29.92 in 6.2 mi Variable 2.3 mph - N/A   Unknown
4:30 PM 60.8 °F - 32.0 °F 34% 29.92 in 6.2 mi Variable 2.3 mph - N/A   Unknown
5:00 PM 60.8 °F - 32.0 °F 34% 29.92 in 6.2 mi Variable 2.3 mph - N/A   Unknown
5:30 PM 60.8 °F - 32.0 °F 34% 29.89 in 6.2 mi Variable 2.3 mph - N/A   Unknown
6:00 PM 60.8 °F - 30.2 °F 31% 29.89 in 6.2 mi South 1.2 mph - N/A   Unknown
6:30 PM 57.2 °F - 30.2 °F 36% 29.92 in 6.2 mi Variable 1.2 mph - N/A   Unknown
7:00 PM 51.8 °F - 33.8 °F 50% 29.89 in 6.2 mi Calm Calm - N/A   Unknown
7:30 PM 48.2 °F - 32.0 °F 54% 29.92 in 6.2 mi Calm Calm - N/A   Unknown
8:00 PM 42.8 °F - 32.0 °F 66% 29.92 in 6.2 mi Calm Calm - N/A   Unknown
8:30 PM 41.0 °F - 32.0 °F 70% 29.92 in 6.2 mi South 2.3 mph - N/A   Unknown
9:00 PM 39.2 °F - 32.0 °F 75% 29.92 in 5.6 mi ENE 2.3 mph - N/A   Unknown
9:30 PM 37.4 °F 34.9 °F 32.0 °F 81% 29.92 in 6.2 mi ENE 3.5 mph - N/A   Unknown
10:00 PM 37.4 °F - 32.0 °F 81% 29.92 in 6.2 mi East 1.2 mph - N/A   Unknown
10:30 PM 33.8 °F 29.6 °F 30.2 °F 87% 29.92 in 6.2 mi ENE 4.6 mph - N/A   Unknown
11:00 PM 33.8 °F 28.6 °F 30.2 °F 87% 29.89 in 6.2 mi East 5.8 mph - N/A   Unknown
11:30 PM 33.8 °F 30.8 °F 30.2 °F 87% 29.89 in 6.2 mi East 3.5 mph - N/A   Unknown